Terug naar catalogus

STARLINK-35652

ActiefCommunicatieVLEO
NORAD 66393·PAYLOAD·🇺🇸 United States

Gelanceerd Nov 8, 2025 vanaf Cape Canaveral Space Force Station

Loading…

Volgende Passages (komende 24 uur)

TLE

VersSource: CelesTrak SupGP

Epoch: Sep 15, 2026, 04:06 UTC

1 66393C 25257P   26258.17131944  .00000087  00000+0  25869-5 0  2588
2 66393  53.1599  54.6776 0001429  84.9778 335.0257 15.34352112    18

Volg STARLINK-35652 in realtime met AllMySat

Download on the App Store